WetterOnline ( http://www.wetteronline.de )

Wetter aktuell Freiburg

Aktuelles Wetter: Freiburg/Flugplatz (236m)

6-stündlich | Neueste Meldungen
Ortszeit Temperatur Wetter
Mo, 17.12. 1:00 -0.8° C bewölkt
So, 16.12. 19:00 0.4° C bedeckt
So, 16.12. 13:00 7.3° C leicht bewölkt
So, 16.12. 7:00 -0.8° C gefrierender Regen
So, 16.12. 1:00 -2.1° C bedeckt
Sa, 15.12. 19:00 -3.1° C wolkig
Sa, 15.12. 13:00 0.8° C wolkenlos
Sa, 15.12. 7:00 -0.6° C bedeckt
Ortszeit Temperatur Wetter
Mo, 17.12. 3:00 1.4° C bedeckt
Mo, 17.12. 2:50 1.4° C bedeckt
Mo, 17.12. 2:40 1.2° C bedeckt
Mo, 17.12. 2:30 0.7° C bedeckt
Mo, 17.12. 2:20 0.7° C bedeckt
Mo, 17.12. 2:10 0.5° C Nebel
Mo, 17.12. 2:00 0.5° C Nebel
Mo, 17.12. 1:30 -0.5° C bedeckt
Mo, 17.12. 1:00 -0.8° C bewölkt
Mo, 17.12. 0:30 -0.7° C bedeckt
Mo, 17.12. 0:00 -1.4° C bedeckt
Ortszeit Relative Feuchte Sichtweite
Mo, 17.12. 1:00 99% 3.6 km
So, 16.12. 19:00 98% 7 km
So, 16.12. 13:00 81% 35 km
So, 16.12. 7:00 94% 2.5 km
So, 16.12. 1:00 84% 8 km
Sa, 15.12. 19:00 86% 6 km
Sa, 15.12. 13:00 58% 13 km
Sa, 15.12. 7:00 79% 8 km
Ortszeit Relative Feuchte Sichtweite
Mo, 17.12. 3:00 98% 4.4 km
Mo, 17.12. 2:50 98% -
Mo, 17.12. 2:40 99% -
Mo, 17.12. 2:30 99% 5.0 km
Mo, 17.12. 2:20 99% -
Mo, 17.12. 2:10 99% -
Mo, 17.12. 2:00 99% 100 m
Mo, 17.12. 1:30 98% 4.8 km
Mo, 17.12. 1:00 99% 3.6 km
Mo, 17.12. 0:30 96% 5.0 km
Mo, 17.12. 0:00 98% 1.7 km
Ortszeit Niederschlagsmenge Niederschlagsart
Mo, 17.12. 1:00 0.0 l/m2 in 6 Std. -
So, 16.12. 19:00 0.1 l/m2 in 12 Std. -
So, 16.12. 13:00 0.1 l/m2 in 6 Std. Regen
So, 16.12. 7:00 3 l/m2 in 12 Std. Schnee, Regen
So, 16.12. 1:00 0.0 l/m2 in 6 Std. -
Sa, 15.12. 19:00 0.0 l/m2 in 12 Std. -
Sa, 15.12. 13:00 0.0 l/m2 in 6 Std. -
Sa, 15.12. 7:00 0.0 l/m2 in 12 Std. -
Ortszeit Niederschlagsmenge Niederschlagsart
Mo, 17.12. 3:00 0.0 l/m2 in 1 Std. -
Mo, 17.12. 2:50 keine Meldung -
Mo, 17.12. 2:40 keine Meldung -
Mo, 17.12. 2:30 0.0 l/m2 in 1 Std. -
Mo, 17.12. 2:20 keine Meldung -
Mo, 17.12. 2:10 keine Meldung -
Mo, 17.12. 2:00 0.0 l/m2 in 1 Std. -
Mo, 17.12. 1:30 0.0 l/m2 in 1 Std. -
Mo, 17.12. 1:00 0.0 l/m2 in 1 Std. -
Mo, 17.12. 0:30 0.0 l/m2 in 1 Std. -
Mo, 17.12. 0:00 0.0 l/m2 in 1 Std. -
Ortszeit Stärke Spitze Richtung
km/h Bft. km/h Grad Sektor
Mo, 17.12. 1:00 4 1 11 20° N
So, 16.12. 19:00 2 1 28 10° N
So, 16.12. 13:00 15 3 30 230° SW
So, 16.12. 7:00 4 1 18 230° SW
So, 16.12. 1:00 2 1 7 320° NW
Sa, 15.12. 19:00 2 1 15 350° N
Sa, 15.12. 13:00 7 2 17 280° W
Sa, 15.12. 7:00 4 1 7 360° N
Ortszeit Stärke Spitze Richtung
km/h Bft. km/h Grad Sektor
Mo, 17.12. 3:00 6 1 7 180° S
Mo, 17.12. 2:50 6 1 - 180° S
Mo, 17.12. 2:40 6 1 - 180° S
Mo, 17.12. 2:30 4 1 4 170° S
Mo, 17.12. 2:20 4 1 - 170° S
Mo, 17.12. 2:10 2 1 - 190° S
Mo, 17.12. 2:00 4 1 4 170° S
Mo, 17.12. 1:30 4 1 4 220° SW
Mo, 17.12. 1:00 4 1 11 20° N
Mo, 17.12. 0:30 6 1 9 40° NO
Mo, 17.12. 0:00 0 0 4 - -
Ortszeit Untergrenze Bedeckung Gattung
total tief tief mittel hoch
Mo, 17.12. 1:00 90 m 8/8 6/8 - - -
So, 16.12. 19:00 6900 m 8/8 8/8 - - -
So, 16.12. 13:00 330 m 4/8 4/8 - - -
So, 16.12. 7:00 120 m 7/8 7/8 - - -
So, 16.12. 1:00 930 m 8/8 8/8 - - -
Sa, 15.12. 19:00 690 m 8/8 1/8 - - -
Sa, 15.12. 13:00 - 0/8 0/8 - - -
Sa, 15.12. 7:00 780 m 8/8 8/8 - - -
Ortszeit Bedeckungsgrad in Achtel und Wolkenuntergrenze
Mo, 17.12. 3:00 8(120m)
Mo, 17.12. 2:50 8(120m)
Mo, 17.12. 2:40 8(120m)
Mo, 17.12. 2:30 8(90m)
Mo, 17.12. 2:20 8(90m)
Mo, 17.12. 2:10 8(30m)
Mo, 17.12. 2:00 8(<30m)
Mo, 17.12. 1:30 8(60m)
Mo, 17.12. 1:00 6(90m) 8(6000m) 8(7800m)
Mo, 17.12. 0:30 8(90m) 8(6300m) 8(8700m)
Mo, 17.12. 0:00 7(120m) 8(1500m) 8(6300m)
Ortszeit Luftdruck NN (hPa) Tendenz (hPa in 3 Std.)
Mo, 17.12. 1:00 1017 + 0,4
So, 16.12. 19:00 1016 + 1,0
So, 16.12. 13:00 1014 - 0,2
So, 16.12. 7:00 1015 + 0,5
So, 16.12. 1:00 1018 - 2,5
Sa, 15.12. 19:00 1023 - 1,1
Sa, 15.12. 13:00 1024 - 1,5
Sa, 15.12. 7:00 1025 - 0,3
Ortszeit Luftdruck NN (hPa) Tendenz (hPa in 3 Std.)
Mo, 17.12. 3:00 1018 + 1,1
Mo, 17.12. 2:50 1018 keine Meldung
Mo, 17.12. 2:40 1018 keine Meldung
Mo, 17.12. 2:30 1018 + 0,6
Mo, 17.12. 2:20 1018 keine Meldung
Mo, 17.12. 2:10 1018 keine Meldung
Mo, 17.12. 2:00 1018 + 0,5
Mo, 17.12. 1:30 1018 + 0,5
Mo, 17.12. 1:00 1017 + 0,4
Mo, 17.12. 0:30 1017 + 0,5
Mo, 17.12. 0:00 1017 + 0,8
Ortszeit Schneehöhe (cm)
Mo, 17.12. 1:00 0
So, 16.12. 19:00 0
So, 16.12. 13:00 0
So, 16.12. 7:00 0
So, 16.12. 1:00 0
Sa, 15.12. 19:00 0
Sa, 15.12. 13:00 0
Sa, 15.12. 7:00 0
Ortszeit Schneehöhe (cm)
Mo, 17.12. 3:00 0
Mo, 17.12. 2:50 0
Mo, 17.12. 2:40 0
Mo, 17.12. 2:30 0
Mo, 17.12. 2:20 0
Mo, 17.12. 2:10 0
Mo, 17.12. 2:00 0
Mo, 17.12. 1:30 0
Mo, 17.12. 1:00 0
Mo, 17.12. 0:30 0
Mo, 17.12. 0:00 0
Link zu dieser Seite / Seite empfehlen

Das Wetter in ...